Stations météo

Publicité
St-Girons, France (7627): Température de l'air & dewpoint: 21.10.2020 19:00:00 - 27.10.2020 19:00:00 (CET)St-Girons, France (7627): Température de l'air 5cm: 21.10.2020 19:00:00 - 27.10.2020 19:00:00 (CET)St-Girons, France (7627): Température de l'air -20cm & Température de l'air -100cm: 21.10.2020 19:00:00 - 27.10.2020 19:00:00 (CET)St-Girons, France (7627): Vitesse du vent & gusts: 21.10.2020 19:00:00 - 27.10.2020 19:00:00 (CET)St-Girons, France (7627): Direction du vent: 21.10.2020 19:00:00 - 27.10.2020 19:00:00 (CET)St-Girons, France (7627): reduced air pressure: 21.10.2020 19:00:00 - 27.10.2020 19:00:00 (CET)St-Girons, France (7627): visibility: 21.10.2020 19:00:00 - 27.10.2020 19:00:00 (CET)St-Girons, France (7627): Ensoleillement: 21.10.2020 19:00:00 - 27.10.2020 19:00:00 (CET)St-Girons, France (7627): Quantités de précipitations: 21.10.2020 19:00:00 - 27.10.2020 19:00:00 (CET)
Date & Time tt [°C] td [°C] tt 5cm [°C] tt -20cm [°C] tt -100cm [°C] ff [km/h] ff [knt] fx [km/h] fx [knt] dd ppp [hPa] vv [km] sd [min] rr [mm]
27.10.2020 19:00:00 12,0 8,3 9,3 14,2 15,6 4 2 11 6 E 1015,7 20 0 0,0
27.10.2020 18:00:00 12,8 8,9 10,4 14,1 15,6 5 3 9 5 SSE 1015,0 20 6 0,0
27.10.2020 17:00:00 14,3 8,5 14,6 14,0 15,6 5 3 7 4 SSE 1014,5 20 18 0,0
27.10.2020 16:00:00 15,3 6,3 17,0 14,0 15,6 2 1 8 4 SSE 1014,4 20 5 0,0
27.10.2020 15:00:00 15,5 6,0 18,2 13,9 15,6 4 2 15 8 SSW 1014,4 20 3 0,0
27.10.2020 14:00:00 15,2 5,4 19,6 13,9 15,6 6 4 12 7 NNW 1014,7 20 29 0,0
27.10.2020 13:00:00 15,6 5,5 19,6 13,9 15,6 3 2 9 5 N 1015,4 20 22 0,0
27.10.2020 12:00:00 13,9 5,3 15,2 13,9 15,7 4 2 10 5 E 1016,4 20 0 0,0
27.10.2020 11:00:00 12,4 7,5 12,9 13,9 15,7 6 3 17 9 SE 1016,9 20 12 0,0
27.10.2020 10:00:00 10,9 6,6 10,8 13,9 15,6 9 5 15 8 SE 1017,5 20 4 0,0
27.10.2020 09:00:00 10,4 7,3 6,2 13,9 15,7 7 4 12 6 SE 1017,4 20 24 0,0
27.10.2020 08:00:00 7,6 6,8 5,9 14,0 15,7 4 2 8 4 SSW 1017,6 20 10 0,0
27.10.2020 07:00:00 8,3 6,8 7,4 14,1 15,7 0 0 11 6 N 1017,1 20 0 0,0
27.10.2020 06:00:00 8,0 6,9 7,3 14,1 15,7 5 3 9 5 SSE 1017,2 20 0 0,0
27.10.2020 05:00:00 8,1 6,6 7,4 14,1 15,6 3 2 12 7 SE 1016,8 20 0 0,0
27.10.2020 04:00:00 8,9 5,6 7,6 14,1 15,7 2 1 16 9 N 1017,3 20 0 0,0
27.10.2020 03:00:00 9,3 5,7 7,3 14,1 15,7 8 4 21 11 W 1017,5 20 0 0,0
27.10.2020 02:00:00 8,8 5,5 7,0 14,2 15,7 3 1 24 13 WSW 1017,7 20 0 0,0
27.10.2020 01:00:00 7,9 5,9 6,1 14,2 15,7 2 1 9 5 E 1018,1 20 0 0,0
27.10.2020 00:00:00 7,2 5,5 6,2 14,3 15,7 0 0 11 6 N 1018,7 20 0 0,0
26.10.2020 23:00:00 7,5 5,5 5,7 14,3 15,7 4 2 8 4 S 1018,5 20 0 0,0
26.10.2020 22:00:00 7,8 4,9 6,1 14,3 15,7 3 1 11 6 ENE 1018,5 20 0 0,0
26.10.2020 21:00:00 8,5 4,1 4,0 14,3 15,7 6 4 14 8 WNW 1018,0 20 0 0,0
26.10.2020 20:00:00 7,6 4,0 2,7 14,3 15,7 4 2 9 5 W 1017,9 20 0 0,0
26.10.2020 19:00:00 7,1 3,7 2,9 14,3 15,7 3 1 16 8 W 1017,5 20 0 0,0
26.10.2020 18:00:00 8,7 4,1 6,8 14,3 15,7 9 5 20 11 W 1016,6 20 9 0,0
26.10.2020 17:00:00 9,4 5,2 7,9 14,3 15,7 11 6 41 22 W 1016,0 20 0 0,2
26.10.2020 16:00:00 9,6 5,2 8,6 14,3 15,7 29 16 49 26 W 1015,7 20 5 0,0
26.10.2020 15:00:00 10,0 5,8 10,2 14,3 15,7 16 8 31 17 W 1014,7 20 1 0,0
26.10.2020 14:00:00 10,2 6,3 9,3 14,3 15,7 14 7 23 12 WNW 1015,0 20 6 0,0
26.10.2020 13:00:00 8,3 5,4 8,1 14,4 15,7 8 4 28 15 W 1016,0 20 0 0,4
26.10.2020 12:00:00 8,2 6,0 7,8 14,4 15,7 18 10 37 20 W 1016,0 20 0 0,2
26.10.2020 11:00:00 8,6 6,7 8,0 14,4 15,7 23 12 45 24 W 1015,4 20 2 0,4
26.10.2020 10:00:00 8,0 6,8 7,8 14,5 15,7 14 7 24 13 WNW 1015,0 15 0 1,0
26.10.2020 09:00:00 7,8 6,3 6,9 14,5 15,7 8 5 27 15 NNW 1014,3 19 0 0,6
26.10.2020 08:00:00 7,7 6,5 7,0 14,5 15,7 4 2 13 7 W 1013,7 20 0 0,0
26.10.2020 07:00:00 7,6 7,2 7,0 14,6 15,7 4 2 6 3 SSW 1012,6 20 0 0,0
26.10.2020 06:00:00 7,7 7,1 7,3 14,6 15,7 0 0 16 9 N 1012,4 20 0 0,6
26.10.2020 05:00:00 7,9 7,5 7,4 14,7 15,7 0 0 9 5 N 1011,6 6 0 0,6
26.10.2020 04:00:00 7,8 7,4 7,4 14,7 15,7 0 0 13 7 N 1011,3 16 0 0,4
26.10.2020 03:00:00 7,9 6,8 7,3 14,8 15,7 10 6 18 10 SSE 1011,4 20 0 0,6
26.10.2020 02:00:00 8,1 7,2 7,7 14,8 15,8 6 3 13 7 SSE 1012,1 20 0 1,0
26.10.2020 01:00:00 8,4 7,6 7,9 14,8 15,7 2 1 15 8 SE 1011,8 19 0 1,7
26.10.2020 00:00:00 8,7 8,1 8,0 14,8 15,7 4 2 15 8 SW 1012,3 7 0 4,4
25.10.2020 23:00:00 9,0 8,2 8,6 14,8 15,7 5 3 16 9 NW 1012,2 7 0 1,0
25.10.2020 22:00:00 9,2 8,6 8,9 14,8 15,8 4 2 22 12 NNW 1011,5 20 0 0,0
25.10.2020 21:00:00 9,5 8,6 8,9 14,8 15,8 22 12 60 33 NW 1011,3 20 0 3,2
25.10.2020 20:00:00 13,6 11,5 9,8 14,8 15,8 28 15 55 30 W 1009,0 9 0 0,0
25.10.2020 19:00:00 11,9 10,5 9,7 14,7 15,7 5 3 9 5 WNW 1006,2 20 0 0,0
25.10.2020 18:00:00 13,7 11,2 11,5 14,6 15,7 6 4 10 6 W 1006,4 20 0 0,0
25.10.2020 17:00:00 15,4 11,4 14,4 14,6 15,7 5 3 13 7 NNW 1006,5 20 0 0,0
25.10.2020 16:00:00 17,1 10,2 16,9 14,5 15,8 5 3 20 11 WNW 1007,1 20 1 0,0
25.10.2020 15:00:00 18,3 10,4 20,2 14,5 15,8 8 4 14 7 N 1006,9 20 18 0,0
25.10.2020 14:00:00 19,4 9,6 24,0 14,5 15,7 4 2 7 4 W 1007,3 19 35 0,0
25.10.2020 13:00:00 18,7 8,1 22,3 14,5 15,7 2 1 7 4 E 1008,4 20 34 0,0
25.10.2020 12:00:00 16,3 8,3 19,8 14,5 15,7 0 0 6 4 N 1009,9 20 7 0,0
25.10.2020 11:00:00 15,0 7,5 19,7 14,5 15,7 3 2 8 4 ENE 1010,7 20 57 0,0
25.10.2020 10:00:00 12,1 6,6 14,5 14,6 15,8 5 3 16 8 WNW 1011,5 20 60 0,0
25.10.2020 09:00:00 10,0 6,5 5,7 14,7 15,7 10 5 24 13 W 1011,1 20 44 0,0
25.10.2020 08:00:00 8,4 4,4 6,3 14,7 15,8 8 4 29 16 SE 1010,6 20 0 0,0
25.10.2020 07:00:00 8,2 5,0 1,8 14,8 15,7 11 6 24 13 ESE 1011,1 20 0 0,0
25.10.2020 06:00:00 4,9 4,9 1,3 14,8 15,7 0 0 8 4 N 1012,5 20 0 0,0
25.10.2020 05:00:00 5,2 4,9 1,5 14,9 15,7 0 0 4 2 N 1013,2 12 0 0,0
25.10.2020 04:00:00 6,2 5,9 2,6 15,0 15,7 0 0 9 5 N 1013,8 20 0 0,0
25.10.2020 03:00:00 7,5 6,6 4,5 15,0 15,7 6 3 26 14 W 1014,0 20 0 0,0
25.10.2020 02:00:00 9,5 6,8 3,7 15,0 15,7 14 8 27 15 ESE 1014,0 20 0 0,0
25.10.2020 01:00:00 - - - - - - - - - - - - - -
25.10.2020 00:00:00 7,5 6,6 5,6 15,1 15,8 7 4 28 15 WSW 1016,3 20 0 0,0
24.10.2020 23:00:00 7,6 6,7 4,7 15,1 15,7 5 3 11 6 SSE 1017,0 20 0 0,0
24.10.2020 22:00:00 9,0 8,2 5,9 15,2 15,7 0 0 9 5 N 1017,4 20 0 0,0
24.10.2020 21:00:00 9,2 8,0 7,2 15,1 15,7 3 1 21 12 SSW 1017,1 20 0 0,0
24.10.2020 20:00:00 11,4 8,8 7,3 15,1 15,7 14 7 23 12 SE 1017,4 20 0 0,0
24.10.2020 19:00:00 11,1 9,0 7,6 15,0 15,7 6 4 11 6 SE 1018,0 20 0 0,0
24.10.2020 18:00:00 11,7 9,1 9,4 15,0 15,7 4 2 5 3 WSW 1018,2 20 8 0,0
24.10.2020 17:00:00 16,3 8,8 17,0 14,9 15,7 5 3 11 6 ENE 1018,0 20 60 0,0
24.10.2020 16:00:00 18,0 8,3 23,0 14,8 15,7 5 3 14 8 N 1018,4 20 60 0,0
24.10.2020 15:00:00 18,5 8,2 25,3 14,7 15,7 6 3 12 7 NNW 1018,4 20 60 0,0
24.10.2020 14:00:00 18,3 6,8 25,7 14,7 15,7 4 2 16 9 N 1019,1 20 60 0,0
24.10.2020 13:00:00 17,7 6,2 25,3 14,7 15,7 5 3 11 6 N 1020,3 20 60 0,0
24.10.2020 12:00:00 16,6 8,5 21,0 14,8 15,7 5 3 16 9 ESE 1021,4 20 60 0,0
24.10.2020 11:00:00 14,8 8,7 20,2 14,8 15,7 9 5 17 9 SE 1021,9 20 60 0,0
24.10.2020 10:00:00 13,3 9,2 15,1 14,9 15,7 8 4 19 11 ESE 1022,5 20 60 0,0
24.10.2020 09:00:00 10,4 8,7 5,5 15,0 15,7 4 2 19 10 SSW 1023,4 20 45 0,0
24.10.2020 08:00:00 6,9 6,0 5,7 15,0 15,7 4 2 30 16 WSW 1024,1 20 0 0,0
24.10.2020 07:00:00 8,4 7,3 3,5 15,0 15,7 15 8 24 13 SSE 1023,7 20 0 0,0
24.10.2020 06:00:00 8,3 7,9 3,4 15,1 15,7 6 4 13 7 SSE 1024,5 20 0 0,0
24.10.2020 05:00:00 6,7 6,3 3,3 15,1 15,7 2 1 5 3 W 1024,7 0,2 0 0,0
24.10.2020 04:00:00 7,6 7,0 4,8 15,2 15,7 3 1 12 7 S 1024,4 1,2 0 0,0
24.10.2020 03:00:00 8,8 8,0 5,7 15,2 15,7 2 1 6 3 SW 1024,8 0,8 0 0,0
24.10.2020 02:00:00 9,7 9,2 7,0 15,2 15,7 2 1 10 5 E 1024,9 20 0 0,0
24.10.2020 01:00:00 10,5 9,6 9,1 15,2 15,7 8 4 13 7 SSE 1024,7 20 0 0,0
24.10.2020 00:00:00 11,1 10,5 10,5 15,3 15,7 3 1 7 4 S 1024,7 20 0 0,0
23.10.2020 23:00:00 11,3 10,7 10,8 15,3 15,7 6 3 8 5 S 1024,5 20 0 0,0
23.10.2020 22:00:00 11,4 10,8 10,8 15,3 15,7 3 1 6 3 ESE 1024,1 16 0 1,4
23.10.2020 21:00:00 11,4 10,1 10,6 15,3 15,7 0 0 12 6 N 1023,5 20 0 0,8
23.10.2020 20:00:00 11,7 10,9 11,0 15,3 15,7 4 2 15 8 SW 1022,9 17 0 0,4
23.10.2020 19:00:00 11,7 10,8 10,7 15,3 15,7 9 5 16 9 SSW 1022,3 8 0 3,1
23.10.2020 18:00:00 12,3 11,2 11,2 15,3 15,7 3 2 16 9 SW 1021,4 19 0 3,6
23.10.2020 17:00:00 12,8 12,2 12,4 15,3 15,7 3 2 10 6 NE 1020,9 9 0 4,1
23.10.2020 16:00:00 13,0 11,9 12,5 15,3 15,7 9 5 13 7 S 1020,2 7 0 3,8
23.10.2020 15:00:00 14,3 12,5 14,5 15,2 15,6 2 1 5 3 ENE 1019,3 19 0 0,0
23.10.2020 14:00:00 14,3 12,8 13,6 15,2 15,7 3 1 13 7 NE 1019,2 20 0 0,2
23.10.2020 13:00:00 14,1 11,8 13,7 15,2 15,6 7 4 15 8 NNW 1019,1 12 0 2,8
23.10.2020 12:00:00 15,5 11,3 16,5 15,3 15,7 6 4 16 9 N 1018,5 20 0 0,0
23.10.2020 11:00:00 14,8 11,4 14,2 15,3 15,7 9 5 23 13 NNW 1018,3 20 3 0,0
23.10.2020 10:00:00 14,0 11,9 14,3 15,2 15,7 14 7 26 14 NW 1017,7 20 0 0,0
23.10.2020 09:00:00 14,5 12,9 11,9 15,3 15,6 0 0 6 4 N 1016,6 20 6 0,0
23.10.2020 08:00:00 13,2 11,6 11,7 15,3 15,7 4 2 10 5 ESE 1015,7 20 0 0,0
23.10.2020 07:00:00 13,2 12,3 11,9 15,3 15,7 2 1 6 4 WSW 1015,4 20 0 0,0
23.10.2020 06:00:00 13,5 12,2 12,4 15,3 15,6 0 0 8 5 N 1015,1 20 0 0,0
23.10.2020 05:00:00 14,0 12,6 12,9 15,3 15,6 4 2 9 5 SE 1014,9 20 0 0,0
23.10.2020 04:00:00 14,3 13,5 13,1 15,3 15,6 3 2 5 3 S 1014,6 20 0 0,0
23.10.2020 03:00:00 14,3 13,7 13,4 15,3 15,6 0 0 8 4 N 1014,8 17 0 0,0
23.10.2020 02:00:00 14,5 14,0 13,3 15,3 15,6 0 0 8 4 N 1014,5 11 0 0,0
23.10.2020 01:00:00 14,3 13,7 13,3 15,3 15,6 2 1 9 5 ESE 1014,1 9 0 0,0
23.10.2020 00:00:00 14,8 14,2 13,1 15,4 15,7 4 2 12 6 NW 1013,4 11 0 0,0
22.10.2020 23:00:00 14,3 13,8 12,8 15,3 15,6 9 5 11 6 WNW 1012,7 10 0 0,0
22.10.2020 22:00:00 15,0 14,0 13,0 15,3 15,6 5 3 10 6 ENE 1011,8 12 0 0,0
22.10.2020 21:00:00 15,5 13,9 13,8 15,3 15,6 2 1 8 4 W 1011,8 14 0 0,0
22.10.2020 20:00:00 17,0 14,6 15,5 15,2 15,6 5 3 17 9 WNW 1011,6 3,5 0 0,0
22.10.2020 19:00:00 17,2 14,7 15,3 15,2 15,6 7 4 13 7 WNW 1011,3 13 0 0,0
22.10.2020 18:00:00 18,6 14,9 17,0 15,1 15,6 6 4 14 8 WSW 1010,5 6 0 0,0
22.10.2020 17:00:00 19,9 13,8 18,6 15,1 15,6 4 2 12 7 SW 1010,1 20 0 0,0
22.10.2020 16:00:00 20,6 14,7 20,8 15,0 15,6 8 4 29 16 NE 1009,9 15 6 0,0
22.10.2020 15:00:00 21,2 13,6 22,0 14,9 15,6 15 8 29 16 ESE 1009,8 20 0 0,0
22.10.2020 14:00:00 23,0 10,4 23,7 14,9 15,6 10 5 22 12 ESE 1010,2 20 1 0,0
22.10.2020 13:00:00 20,7 15,3 21,4 14,8 15,6 4 2 13 7 WNW 1011,3 20 0 0,0
22.10.2020 12:00:00 19,2 15,3 20,8 14,8 15,6 4 2 15 8 N 1012,6 20 0 0,0
22.10.2020 11:00:00 20,7 12,1 22,6 14,8 15,6 10 5 15 8 S 1012,0 20 11 0,0
22.10.2020 10:00:00 18,9 14,2 17,7 14,8 15,6 4 2 14 8 NNE 1012,2 20 54 0,0
22.10.2020 09:00:00 15,5 12,8 12,0 14,9 15,6 8 4 22 12 NE 1012,5 20 45 0,0
22.10.2020 08:00:00 12,3 11,7 10,9 14,9 15,6 5 3 17 9 SE 1012,8 19 8 0,0
22.10.2020 07:00:00 12,2 11,9 10,6 14,9 15,6 5 3 20 11 SSW 1012,8 20 0 0,0
22.10.2020 06:00:00 12,1 11,8 9,2 14,9 15,6 5 3 16 9 ESE 1012,5 20 0 0,0
22.10.2020 05:00:00 11,4 11,1 10,4 15,0 15,6 3 2 9 5 E 1013,2 19 0 0,0
22.10.2020 04:00:00 11,7 11,5 10,5 15,0 15,6 4 2 9 5 NNW 1012,8 0,5 0 0,0
22.10.2020 03:00:00 12,3 12,1 11,3 15,0 15,6 2 1 14 7 E 1012,8 0,3 0 0,0
22.10.2020 02:00:00 12,7 12,5 12,4 15,0 15,6 4 2 9 5 S 1012,9 0,2 0 0,2
22.10.2020 01:00:00 12,9 12,9 12,3 15,0 15,6 0 0 10 5 N 1012,7 0,1 0 0,0
22.10.2020 00:00:00 12,4 12,4 7,7 15,0 15,6 4 2 10 5 N 1012,2 0,1 0 0,0
21.10.2020 23:00:00 11,7 11,1 8,5 15,0 15,6 4 2 8 5 SSE 1011,9 3,7 0 0,0
21.10.2020 22:00:00 12,6 11,8 9,9 15,0 15,6 2 1 12 6 SE 1011,6 9 0 0,0
21.10.2020 21:00:00 13,2 11,9 10,6 14,9 15,6 5 3 12 6 N 1010,9 13 0 0,0
21.10.2020 20:00:00 14,7 13,6 11,4 14,8 15,6 3 2 13 7 SSE 1009,8 13 0 0,0
21.10.2020 19:00:00 16,5 14,9 13,2 14,8 15,6 5 3 12 6 WSW 1009,0 14 0 0,0

tt = Température de l'air
td = dewpoint
tt 5cm = Température de l'air 5cm
tt -20cm = Température de l'air -20cm
tt -100cm = Température de l'air -100cm
ff = Vitesse du vent
fx = gusts
dd = Direction du vent
ppp = reduced air pressure
vv = visibility
sd = Ensoleillement
rr = Quantités de précipitations

stations d'obs. à proximité